TimeMDT,TemperatureF,Dew PointF,Humidity,Sea Level PressureIn,VisibilityMPH,Wind Direction,Wind SpeedMPH,Gust SpeedMPH,PrecipitationIn,Events,Conditions,WindDirDegrees,DateUTC
12:58 AM,85.6,48.2,27,29.66,10.0,SSE,26.5,33.4,N/A,,Clear,150,2013-06-20 06:58:00
1:58 AM,84.2,48.2,29,29.67,10.0,SE,28.8,36.8,N/A,,Clear,140,2013-06-20 07:58:00
2:58 AM,81.7,47.8,31,29.67,10.0,SSE,25.3,29.9,N/A,,Clear,150,2013-06-20 08:58:00
3:58 AM,80.8,46.9,30,29.69,10.0,SSE,18.4,26.5,N/A,,Clear,160,2013-06-20 09:58:00
4:58 AM,79.9,46.9,31,29.70,10.0,SSE,17.3,-,N/A,,Clear,160,2013-06-20 10:58:00
5:58 AM,80.2,46.6,31,29.72,10.0,SSE,15.0,-,N/A,,Clear,160,2013-06-20 11:58:00
6:58 AM,81.0,46.4,30,29.73,10.0,SSE,17.3,-,N/A,,Clear,150,2013-06-20 12:58:00
7:58 AM,84.6,46.6,27,29.75,10.0,South,15.0,-,N/A,,Clear,170,2013-06-20 13:58:00
8:58 AM,86.9,46.8,25,29.77,10.0,South,17.3,23.0,N/A,,Clear,170,2013-06-20 14:58:00
9:58 AM,89.2,45.7,22,29.77,10.0,SSE,11.5,-,N/A,,Clear,160,2013-06-20 15:58:00
10:31 AM,91.4,41.0,17,30.01,10.0,SSW,11.5,19.6,N/A,,Clear,210,2013-06-20 16:31:00
10:58 AM,93.4,36.1,13,29.75,10.0,Variable,5.8,-,N/A,,Clear,0,2013-06-20 16:58:00
11:58 AM,95.2,35.6,12,29.74,10.0,SSE,9.2,-,N/A,,Clear,160,2013-06-20 17:58:00
12:58 PM,98.6,33.8,10,29.72,10.0,West,9.2,18.4,N/A,,Scattered Clouds,270,2013-06-20 18:58:00
1:06 PM,98.6,32.0,10,29.96,10.0,SW,15.0,20.7,N/A,,Scattered Clouds,220,2013-06-20 19:06:00
1:18 PM,98.6,33.8,10,29.96,10.0,SW,11.5,19.6,N/A,,Scattered Clouds,220,2013-06-20 19:18:00
1:43 PM,100.4,32.0,9,29.95,10.0,SSW,12.7,25.3,N/A,,Scattered Clouds,210,2013-06-20 19:43:00
1:51 PM,100.4,32.0,9,29.94,10.0,West,11.5,20.7,N/A,,Scattered Clouds,270,2013-06-20 19:51:00
1:58 PM,99.9,29.8,9,29.69,10.0,West,19.6,21.9,N/A,,Partly Cloudy,260,2013-06-20 19:58:00
2:39 PM,102.2,32.0,9,29.92,10.0,SW,18.4,23.0,N/A,,Partly Cloudy,230,2013-06-20 20:39:00
2:54 PM,100.4,32.0,9,29.92,10.0,SSW,16.1,25.3,N/A,,Partly Cloudy,200,2013-06-20 20:54:00
2:58 PM,100.8,30.6,9,29.67,10.0,South,11.5,25.3,N/A,,Partly Cloudy,190,2013-06-20 20:58:00
3:18 PM,100.4,30.2,9,29.91,10.0,WSW,16.1,25.3,N/A,,Partly Cloudy,240,2013-06-20 21:18:00
3:27 PM,100.4,30.2,9,29.90,10.0,SSW,13.8,-,N/A,,Clear,200,2013-06-20 21:27:00
3:29 PM,100.4,30.2,9,29.90,10.0,South,13.8,-,N/A,,Clear,190,2013-06-20 21:29:00
3:30 PM,100.4,30.2,9,29.90,10.0,South,11.5,-,N/A,,Clear,190,2013-06-20 21:30:00
3:58 PM,101.5,30.4,8,29.64,10.0,SW,16.1,-,N/A,,Clear,220,2013-06-20 21:58:00
4:31 PM,100.4,32.0,9,29.88,10.0,WSW,17.3,24.2,N/A,,Clear,240,2013-06-20 22:31:00
4:58 PM,100.4,30.4,9,29.62,10.0,SSW,10.4,-,N/A,,Clear,210,2013-06-20 22:58:00
5:04 PM,100.4,30.2,9,29.87,10.0,SW,13.8,-,N/A,,Clear,230,2013-06-20 23:04:00
5:11 PM,100.4,30.2,9,29.86,10.0,SW,18.4,26.5,N/A,,Clear,220,2013-06-20 23:11:00
5:12 PM,100.4,30.2,9,29.86,10.0,SSW,16.1,26.5,N/A,,Clear,200,2013-06-20 23:12:00
5:58 PM,99.9,32.2,9,29.60,10.0,WSW,18.4,-,N/A,,Clear,250,2013-06-20 23:58:00
6:41 PM,98.6,33.8,10,29.85,10.0,SSW,20.7,25.3,N/A,,Clear,200,2013-06-21 00:41:00
6:58 PM,96.4,36.7,12,29.61,10.0,SSW,18.4,-,N/A,,Clear,210,2013-06-21 00:58:00
7:58 PM,94.6,37.6,14,29.62,10.0,SSW,13.8,-,N/A,,Clear,210,2013-06-21 01:58:00
8:58 PM,91.4,36.5,14,29.65,10.0,SSW,16.1,-,N/A,,Clear,200,2013-06-21 02:58:00
9:40 PM,87.8,46.4,24,29.91,10.0,SE,28.8,36.8,N/A,,Clear,140,2013-06-21 03:40:00
9:45 PM,87.8,46.4,24,29.92,10.0,SSE,32.2,39.1,N/A,,Clear,150,2013-06-21 03:45:00
9:50 PM,87.8,46.4,24,29.93,10.0,SSE,28.8,39.1,N/A,,Clear,150,2013-06-21 03:50:00
9:58 PM,87.1,46.8,25,29.70,10.0,SSE,26.5,33.4,N/A,,Clear,150,2013-06-21 03:58:00
10:58 PM,82.8,46.0,28,29.74,10.0,SSE,26.5,34.5,N/A,,Clear,150,2013-06-21 04:58:00
11:58 PM,82.4,45.9,28,29.77,10.0,SSE,21.9,28.8,N/A,,Clear,160,2013-06-21 05:58:00